Location: Praha
(50.0830°N, 14.4670°E)
Time: 06:06:14
(UTC+01:00)

ISS - Pass Details

Date: 27 February 2020
Orbit: 415 x 423 km, 51.6° (Epoch: 27 February)

Event Time Altitude Azimuth Distance (km) Brightness Sun altitude
Exits shadow 04:26:22 24° 133° (SE) 917 -1.8 -23.8°
Drops below altitude 10° 04:28:49 10° 88° (E) 1,504 0.1 -23.4°
Sets 04:31:09 0° 74° (ENE) 2,374 1.6 -23.1°
